Location: Newark
(41.8083°N, 72.2500°W)
Time: 21:26:45
(UTC+00:00)

Courier 1B - Pass Details

Date: 30 November 2021
Orbit: 962 x 1209 km, 28.3° (Epoch: 19 January)

Event Time Altitude Azimuth Distance (km) Brightness Sun altitude
Rises 01:16:33 0° 248° (WSW) 3,820 11.2 -43.5°
Reaches altitude 10° 01:19:49 10° 236° (SW) 2,823 10.3 -44.1°
Enters shadow 01:20:52 14° 230° (SW) 2,541 9.9 -44.3°
Maximum altitude 01:25:11 25° 184° (S) 1,890 - -45.1°
Drops below altitude 10° 01:30:23 10° 131° (SE) 2,715 - -46.1°
Sets 01:33:27 0° 119° (ESE) 3,644 - -46.6°
